When you browse on this site, cookies collect data to enhance your experience and personalize the content and advertising you see.
Visit our Privacy Policy to learn more. By continuing to use the site, you agree to this use of cookies and data.
  • In Romania
  • List of Countries
  • For 7 days
  • Water Temperature
  • Weather Map
  • Weather Widgets
  • user-avatar
    Login

    Hourly Weather Rio Branco

    Today, 19 September, Thursday

    Time Temperature Precipitation Wind Pressure Humidity
    00:00 +30°C° 0 mm 1 mps 741 mmHg 53%
    01:00 +29°C° 0 mm 1 mps 741 mmHg 54%
    02:00 +29°C° 0 mm 1 mps 741 mmHg 56%
    03:00 +29°C° 0 mm 1 mps 741 mmHg 57%
    04:00 +28°C° 0 mm 1 mps 741 mmHg 59%
    05:00 +30°C° 0 mm 1 mps 742 mmHg 56%
    06:00 +31°C° 0 mm 1 mps 742 mmHg 54%
    07:00 +32°C° 0 mm 2 mps 743 mmHg 51%
    08:00 +35°C° 0 mm 2 mps 743 mmHg 44%
    09:00 +38°C° 0 mm 2 mps 743 mmHg 37%
    10:00 +41°C° 0 mm 2 mps 743 mmHg 30%
    11:00 +41°C° 0 mm 2 mps 742 mmHg 29%
    12:00 +41°C° 0 mm 2 mps 742 mmHg 28%
    13:00 +41°C° 0 mm 2 mps 741 mmHg 28%
    14:00 +41°C° 0 mm 2 mps 740 mmHg 28%
    15:00 +41°C° 0 mm 2 mps 739 mmHg 28%
    16:00 +40°C° 0 mm 2 mps 739 mmHg 29%
    17:00 +38°C° 0 mm 2 mps 739 mmHg 33%
    18:00 +35°C° 0 mm 1 mps 740 mmHg 37%
    19:00 +33°C° 0 mm 1 mps 740 mmHg 42%
    20:00 +32°C° 0 mm 1 mps 741 mmHg 44%
    21:00 +32°C° 0 mm 1 mps 741 mmHg 46%
    22:00 +31°C° 0 mm 1 mps 741 mmHg 49%
    23:00 +30°C° 0 mm 1 mps 741 mmHg 51%

    Tomorrow, 20 September, Friday

    Time Temperature Precipitation Wind Pressure Humidity
    00:00 +30°C° 0 mm 1 mps 741 mmHg 53%
    01:00 +29°C° 0 mm 1 mps 741 mmHg 55%
    02:00 +29°C° 0 mm 1 mps 741 mmHg 57%
    03:00 +28°C° 0 mm 1 mps 742 mmHg 60%
    04:00 +28°C° 0 mm 1 mps 742 mmHg 62%
    05:00 +29°C° 0 mm 1 mps 743 mmHg 58%
    06:00 +30°C° 0 mm 1 mps 743 mmHg 55%
    07:00 +32°C° 0 mm 1 mps 744 mmHg 52%
    08:00 +36°C° 0 mm 2 mps 745 mmHg 44%
    09:00 +39°C° 0 mm 2 mps 745 mmHg 35%
    10:00 +42°C° 0 mm 2 mps 745 mmHg 27%
    11:00 +42°C° 0 mm 2 mps 744 mmHg 26%
    12:00 +42°C° 0 mm 2 mps 743 mmHg 25%
    13:00 +42°C° 0 mm 2 mps 742 mmHg 25%
    14:00 +42°C° 0 mm 2 mps 742 mmHg 26%
    15:00 +41°C° 0 mm 2 mps 741 mmHg 27%
    16:00 +41°C° 0 mm 2 mps 741 mmHg 28%
    17:00 +39°C° 0.1 mm 2 mps 741 mmHg 34%
    18:00 +35°C° 0.1 mm 1 mps 741 mmHg 39%
    19:00 +33°C° 0.1 mm 1 mps 741 mmHg 44%
    20:00 +32°C° 0 mm 1 mps 742 mmHg 48%
    21:00 +31°C° 0 mm 1 mps 743 mmHg 51%
    22:00 +31°C° 0 mm 1 mps 743 mmHg 54%
    23:00 +30°C° 0.2 mm 1 mps 743 mmHg 58%

    Day after tomorrow, 21 September, Saturday

    Time Temperature Precipitation Wind Pressure Humidity
    00:00 +29°C° 0.2 mm 1 mps 743 mmHg 61%
    01:00 +28°C° 0.2 mm 1 mps 743 mmHg 64%
    02:00 +27°C° 0.7 mm 1 mps 743 mmHg 71%
    03:00 +24°C° 0.7 mm 0 mps 744 mmHg 78%
    04:00 +23°C° 0.7 mm 0 mps 744 mmHg 85%
    05:00 +25°C° 0.1 mm 0 mps 745 mmHg 81%
    06:00 +26°C° 0.1 mm 0 mps 745 mmHg 77%
    07:00 +29°C° 0.1 mm 1 mps 746 mmHg 73%
    08:00 +33°C° 0 mm 1 mps 746 mmHg 59%
    09:00 +37°C° 0 mm 1 mps 746 mmHg 46%
    10:00 +42°C° 0 mm 1 mps 747 mmHg 32%
    11:00 +42°C° 0 mm 1 mps 745 mmHg 31%
    12:00 +42°C° 0 mm 1 mps 744 mmHg 29%
    13:00 +40°C° 0 mm 0 mps 743 mmHg 28%
    14:00 +39°C° 0 mm 0 mps 742 mmHg 29%
    15:00 +38°C° 0 mm 0 mps 741 mmHg 30%
    16:00 +37°C° 0 mm 0 mps 740 mmHg 31%
    17:00 +37°C° 0.1 mm 1 mps 741 mmHg 38%
    18:00 +35°C° 0.1 mm 1 mps 742 mmHg 44%
    19:00 +32°C° 0.1 mm 1 mps 743 mmHg 51%
    20:00 +31°C° 0.2 mm 1 mps 743 mmHg 58%
    21:00 +30°C° 0.2 mm 1 mps 744 mmHg 65%
    22:00 +28°C° 0.2 mm 1 mps 745 mmHg 72%
    23:00 +28°C° 0.5 mm 1 mps 745 mmHg 77%

    22 September, Sunday

    Time Temperature Precipitation Wind Pressure Humidity
    00:00 +27°C° 0.5 mm 1 mps 744 mmHg 82%
    01:00 +26°C° 0.5 mm 1 mps 744 mmHg 87%
    02:00 +26°C° 0.6 mm 1 mps 745 mmHg 89%
    03:00 +26°C° 0.6 mm 1 mps 745 mmHg 91%
    04:00 +25°C° 0.6 mm 1 mps 745 mmHg 93%
    05:00 +26°C° 0 mm 1 mps 745 mmHg 91%
    06:00 +24°C° 0 mm 0 mps 746 mmHg 89%
    07:00 +25°C° 0 mm 0 mps 746 mmHg 87%
    08:00 +28°C° 0 mm 0 mps 747 mmHg 73%
    09:00 +32°C° 0 mm 0 mps 747 mmHg 60%
    10:00 +35°C° 0 mm 0 mps 747 mmHg 46%
    11:00 +35°C° 0 mm 0 mps 746 mmHg 43%
    12:00 +39°C° 0 mm 1 mps 745 mmHg 40%
    13:00 +40°C° 0 mm 1 mps 745 mmHg 37%
    14:00 +39°C° 0 mm 1 mps 744 mmHg 37%
    15:00 +36°C° 0 mm 0 mps 743 mmHg 37%
    16:00 +36°C° 0 mm 0 mps 742 mmHg 37%
    17:00 +35°C° 0.3 mm 1 mps 742 mmHg 51%
    18:00 +31°C° 0.3 mm 1 mps 743 mmHg 66%
    19:00 +28°C° 0.3 mm 2 mps 743 mmHg 81%
    20:00 +27°C° 0.1 mm 2 mps 744 mmHg 84%
    21:00 +27°C° 0.1 mm 1 mps 744 mmHg 86%
    22:00 +27°C° 0.1 mm 1 mps 744 mmHg 89%
    23:00 +26°C° 0.1 mm 1 mps 744 mmHg 90%

    23 September, Monday

    Time Temperature Precipitation Wind Pressure Humidity
    00:00 +26°C° 0.1 mm 1 mps 744 mmHg 91%
    01:00 +26°C° 0.1 mm 1 mps 744 mmHg 92%
    02:00 +25°C° 0.3 mm 1 mps 744 mmHg 92%
    03:00 +23°C° 0.3 mm 0 mps 744 mmHg 92%
    04:00 +23°C° 0.3 mm 0 mps 744 mmHg 93%
    05:00 +26°C° 0.2 mm 1 mps 744 mmHg 90%
    06:00 +27°C° 0.2 mm 1 mps 745 mmHg 86%
    07:00 +27°C° 0.2 mm 1 mps 745 mmHg 83%
    08:00 +31°C° 0 mm 1 mps 746 mmHg 67%
    09:00 +35°C° 0 mm 2 mps 746 mmHg 51%
    10:00 +39°C° 0 mm 2 mps 746 mmHg 35%
    11:00 +40°C° 0 mm 2 mps 745 mmHg 31%
    12:00 +42°C° 0 mm 2 mps 744 mmHg 27%
    13:00 +43°C° 0 mm 2 mps 743 mmHg 23%
    14:00 +43°C° 0 mm 2 mps 742 mmHg 23%
    15:00 +42°C° 0 mm 2 mps 742 mmHg 23%
    16:00 +42°C° 0 mm 2 mps 741 mmHg 23%
    17:00 +39°C° 0 mm 1 mps 741 mmHg 27%
    18:00 +36°C° 0 mm 1 mps 742 mmHg 32%
    19:00 +34°C° 0 mm 1 mps 742 mmHg 36%
    20:00 +33°C° 0 mm 1 mps 743 mmHg 42%
    21:00 +32°C° 0 mm 2 mps 743 mmHg 48%
    22:00 +31°C° 0 mm 2 mps 744 mmHg 55%
    23:00 +30°C° 0 mm 2 mps 744 mmHg 59%

    24 September, Tuesday

    Time Temperature Precipitation Wind Pressure Humidity
    00:00 +29°C° 0 mm 1 mps 744 mmHg 64%
    01:00 +28°C° 0 mm 1 mps 744 mmHg 69%
    02:00 +28°C° 0 mm 1 mps 744 mmHg 71%
    03:00 +27°C° 0 mm 1 mps 744 mmHg 73%
    04:00 +27°C° 0 mm 1 mps 745 mmHg 76%
    05:00 +27°C° 0.1 mm 1 mps 746 mmHg 75%
    06:00 +28°C° 0.1 mm 1 mps 746 mmHg 75%
    07:00 +29°C° 0.1 mm 2 mps 747 mmHg 74%
    08:00 +32°C° 0 mm 2 mps 747 mmHg 62%
    09:00 +35°C° 0 mm 1 mps 747 mmHg 51%
    10:00 +39°C° 0 mm 1 mps 747 mmHg 39%
    11:00 +40°C° 0 mm 2 mps 746 mmHg 37%
    12:00 +40°C° 0 mm 2 mps 745 mmHg 35%
    13:00 +41°C° 0 mm 2 mps 744 mmHg 32%
    14:00 +40°C° 0 mm 2 mps 744 mmHg 34%
    15:00 +40°C° 0 mm 2 mps 743 mmHg 35%
    16:00 +39°C° 0 mm 2 mps 742 mmHg 37%
    17:00 +36°C° 0.4 mm 2 mps 743 mmHg 50%
    18:00 +31°C° 0.4 mm 1 mps 743 mmHg 64%
    19:00 +28°C° 0.4 mm 1 mps 744 mmHg 78%
    20:00 +28°C° 0 mm 1 mps 744 mmHg 80%
    21:00 +27°C° 0 mm 1 mps 744 mmHg 82%
    22:00 +27°C° 0 mm 1 mps 745 mmHg 84%
    23:00 +26°C° 0 mm 1 mps 744 mmHg 85%
    Show more